Torna al catalogo

STARLINK-33559

AttivoComunicazioniVLEO
NORAD 62107·PAYLOAD·🇺🇸 United States

Lanciato Nov 25, 2024 da Cape Canaveral Space Force Station

Loading…

Prossimi Passaggi (prossime 24 ore)

TLE

AggiornatoSource: CelesTrak SupGP

Epoca: Sep 15, 2026, 02:27 UTC

1 62107C 24220V   26258.10256944 -.00040171  00000+0 -14552-2 0  2581
2 62107  43.0027 215.9280 0001211 271.0286 260.5682 15.27593864    12

Traccia STARLINK-33559 in tempo reale con AllMySat

Download on the App Store